Terminal Aerodrome Forecast
Issued by NWS Sterling, VA

Current Version | Previous Version | Text Only | Print | Product List | Glossary Off
Versions: 1 2 3 4 5 6 7 8 9 10 11 12 13 14 15 16 17 18 19 20 21 22 23 24 25 26 27 28 29 30 31 32 33 34 35

000
FTUS41 KLWX 230545
TAFDCA
TAF
KDCA 230545Z 2306/2412 07007KT P6SM OVC010
     FM230800 08007KT 3SM -RADZ BR OVC008
     FM231200 08006KT 1 1/2SM -RA BR OVC003
     FM231800 12004KT 1SM BR OVC003
     FM232300 18005KT 3SM BR OVC003
     FM240300 20006KT 3SM BR BKN008
     FM240500 21005KT 3SM BR OVC008 WS020/24035KT=

USA.gov is the U.S. government's official web portal to all federal, state and local government web resources and services.